Tallinn, Estonia

6:25 PM EEST on August 17, 2018 (GMT +0300)
Ulemiste

Weather History for EETN - February, 2018

Change the Weather History Date:

Wednesday, February 14, 2018

  Actual Average Record
Temperature  
Mean Temperature 29 °F -  
Max Temperature 35 °F 30 °F 42 °F (2017)
Min Temperature 23 °F 18 °F -7 °F (2011)
Degree Days  
Heating Degree Days 36    
Moisture  
Dew Point 27 °F    
Average Humidity 89    
Maximum Humidity 100    
Minimum Humidity 65    
Precipitation  
Precipitation 0.04 in 0.04 in - ()
Sea Level Pressure  
Sea Level Pressure 30.25 in    
Wind  
Wind Speed 5 mph ()    
Max Wind Speed 8 mph    
Max Gust Speed -    
Visibility 5.9 miles    
Events Fog    
Averages and records for this station are not official NWS values.
T = Trace of Precipitation, MM = Missing Value Source: Averaged Metar Reports

Daily Weather History Graph

Daily Weather History Graph

Search for Another Location

Airport or City:

Astronomy

Feb. 14, 2018 Rise Set
Actual Time 7:59 AM EET 5:10 PM EET
Civil Twilight 7:16 AM EET 5:54 PM EET
Nautical Twilight 6:28 AM EET 6:42 PM EET
Astronomical Twilight 5:41 AM EET 7:29 PM EET
Moon 7:33 AM EET (2/14) 3:30 PM EET (2/14)
Length of Visible Light 10h 37m
Length of Day
9h 11m
Waning Crescent, 2% of the Moon is Illuminated
Feb 14
Waning Crescent
Feb 15
New
Feb 23
First Quarter
Mar 2
Full
Mar 9
Last Quarter

Hourly Weather History & Observations

Time (EET) Temp. Windchill Dew Point Humidity Pressure Visibility Wind Dir Wind Speed Gust Speed Precip Events Conditions
12:00 AM 30 °F - 28 °F 87% 30.12 in 8 mi South 6.7 mph - -   Clear
12:20 AM 30.2 °F 23.4 °F 28.4 °F 93% 30.09 in 5.6 mi SSE 6.9 mph - N/A   Mostly Cloudy
12:50 AM 30.2 °F 22.6 °F 28.4 °F 93% 30.09 in 5.6 mi SSE 8.1 mph - N/A   Overcast
1:00 AM 30 °F - 28 °F 88% 30.13 in 8 mi SSE 6.7 mph - -   Clear
1:20 AM 30.2 °F 23.4 °F 28.4 °F 93% 30.12 in 5.6 mi SSE 6.9 mph - N/A   Overcast
1:50 AM 30.2 °F 24.3 °F 28.4 °F 93% 30.12 in 5.6 mi SSE 5.8 mph - N/A   Mostly Cloudy
2:00 AM 29 °F - 27 °F 91% 30.14 in 8 mi SSE 6.7 mph - -   Partly Cloudy
2:20 AM 30.2 °F 24.3 °F 26.6 °F 86% 30.12 in 5.6 mi SSE 5.8 mph - N/A   Mostly Cloudy
2:50 AM 30.2 °F 24.3 °F 28.4 °F 93% 30.12 in 5.0 mi SSE 5.8 mph - N/A   Mostly Cloudy
3:00 AM 29 °F - 28 °F 92% 30.15 in 7 mi SSE 6.7 mph - -   Clear
3:20 AM 30.2 °F 24.3 °F 28.4 °F 93% 30.15 in 5.0 mi SSE 5.8 mph - N/A   Mostly Cloudy
3:50 AM 30.2 °F 26.7 °F 26.6 °F 86% 30.15 in 5.6 mi South 3.5 mph - N/A   Mostly Cloudy
4:00 AM 30 °F - 29 °F 92% 30.17 in 6 mi South 6.7 mph - -   Mist
4:20 AM 30.2 °F 26.7 °F 28.4 °F 93% 30.15 in 5.6 mi South 3.5 mph - N/A   Overcast
4:50 AM 30.2 °F 25.4 °F 28.4 °F 93% 30.15 in 5.6 mi SE 4.6 mph - N/A   Mostly Cloudy
5:00 AM 30 °F - 29 °F 93% 30.18 in 6 mi South 4.5 mph - -   Mist
5:20 AM 30.2 °F 25.4 °F 28.4 °F 93% 30.15 in 5.6 mi SSE 4.6 mph - N/A   Mostly Cloudy
5:50 AM 28.4 °F 23.3 °F 28.4 °F 100% 30.15 in 5.6 mi SE 4.6 mph - N/A   Overcast
6:00 AM 30 °F - 28 °F 90% 30.19 in 6 mi South 4.5 mph - -   Mist
6:20 AM 28.4 °F 24.6 °F 26.6 °F 93% 30.18 in 5.6 mi SSE 3.5 mph - N/A   Mostly Cloudy
6:50 AM 28.4 °F - 26.6 °F 93% 30.18 in 4.3 mi Variable 2.3 mph - N/A   Scattered Clouds
7:00 AM 27 °F - 26 °F 97% 30.20 in 5 mi SSE 4.5 mph - -   Mist
7:20 AM 26.6 °F 22.6 °F 26.6 °F 100% 30.18 in 3.7 mi South 3.5 mph - N/A Fog Patches of Fog
7:50 AM 26.6 °F 22.6 °F 26.6 °F 100% 30.18 in 3.1 mi South 3.5 mph - N/A   Mist
8:00 AM 27 °F - 26 °F 96% 30.22 in 4 mi SSW 4.5 mph - -   Mist
8:20 AM 26.6 °F 21.2 °F 26.6 °F 100% 30.21 in 3.1 mi South 4.6 mph - N/A   Mist
8:50 AM 23.0 °F - 21.2 °F 93% 30.21 in 1.9 mi Variable 2.3 mph - N/A Fog Mist
9:00 AM 27 °F - 26 °F 97% 30.24 in 4 mi South 2.2 mph - -   Mist
9:20 AM 23.0 °F - 23.0 °F 100% 30.21 in 0.1 mi Calm Calm - N/A Fog Mostly Cloudy
9:50 AM 26.6 °F 21.2 °F 26.6 °F 100% 30.24 in 3.7 mi South 4.6 mph - N/A   Mostly Cloudy
10:00 AM 30 °F - 28 °F 91% 30.25 in 6 mi South 4.5 mph - -   Clear
10:20 AM 30.2 °F 25.4 °F 28.4 °F 93% 30.24 in 5.6 mi SSE 4.6 mph - N/A   Mostly Cloudy
10:50 AM 32.0 °F 28.7 °F 28.4 °F 87% 30.24 in 5.6 mi South 3.5 mph - N/A   Mostly Cloudy
11:00 AM 32 °F - 29 °F 86% 30.27 in 7 mi SSE 4.5 mph - -   Partly Cloudy
11:20 AM 32.0 °F - 28.4 °F 87% 30.24 in 5.6 mi Variable 2.3 mph - N/A   Mostly Cloudy
11:50 AM 33.8 °F 30.8 °F 28.4 °F 81% 30.27 in 6.2 mi SSE 3.5 mph - N/A   Mostly Cloudy
12:00 PM 34 °F - 29 °F 73% 30.28 in 10 mi South 4.5 mph - -   Clear
12:20 PM 33.8 °F 29.6 °F 28.4 °F 81% 30.27 in 6.2 mi SSE 4.6 mph - N/A   Overcast
12:50 PM 33.8 °F 28.6 °F 28.4 °F 81% 30.27 in 6.2 mi SSE 5.8 mph - N/A   Overcast
1:20 PM 33.8 °F 29.6 °F 28.4 °F 81% 30.27 in 6.2 mi SE 4.6 mph - N/A   Overcast
1:50 PM 33.8 °F 29.6 °F 28.4 °F 81% 30.27 in 6.2 mi SSE 4.6 mph - N/A   Overcast
2:00 PM 35 °F - 28 °F 66% 30.29 in 12 mi SE 4.5 mph - -   Partly Cloudy
2:20 PM 33.8 °F 30.8 °F 28.4 °F 81% 30.27 in 6.2 mi SSE 3.5 mph - N/A   Overcast
2:50 PM 33.8 °F - 28.4 °F 81% 30.27 in 6.2 mi Variable 2.3 mph - N/A   Overcast
3:00 PM 35 °F - 28 °F 65% 30.30 in 12 mi SSE 2.2 mph - -   Clear
3:20 PM 33.8 °F - 28.4 °F 81% 30.27 in 6.2 mi Variable 2.3 mph - N/A   Overcast
3:50 PM 33.8 °F 30.8 °F 28.4 °F 81% 30.30 in 6.2 mi SE 3.5 mph - N/A   Overcast
4:20 PM 33.8 °F 30.8 °F 28.4 °F 81% 30.30 in 6.2 mi ESE 3.5 mph - N/A   Overcast
4:50 PM 32.0 °F 28.7 °F 28.4 °F 87% 30.30 in 6.2 mi ESE 3.5 mph - N/A   Overcast
5:00 PM 34 °F - 27 °F 66% 30.32 in 12 mi East 2.2 mph - -   Partly Cloudy
5:20 PM 32.0 °F 26.4 °F 26.6 °F 80% 30.30 in 6.2 mi ESE 5.8 mph - N/A   Mostly Cloudy
5:50 PM 30.2 °F 23.4 °F 28.4 °F 93% 30.30 in 5.6 mi East 6.9 mph - N/A   Overcast
6:00 PM 33 °F - 28 °F 73% 30.33 in 12 mi ESE 4.5 mph - -   Clear
6:20 PM 32.0 °F 24.8 °F 28.4 °F 87% 30.30 in 6.2 mi ESE 8.1 mph - N/A   Mostly Cloudy
6:50 PM 28.4 °F 22.2 °F 26.6 °F 93% 30.30 in 6.2 mi ESE 5.8 mph - N/A   Mostly Cloudy
7:00 PM 32 °F - 28 °F 80% 30.34 in 9 mi SE 4.5 mph - -   Clear
7:20 PM 28.4 °F 22.2 °F 26.6 °F 93% 30.33 in 5.6 mi ESE 5.8 mph - N/A   Partly Cloudy
7:50 PM 26.6 °F 20.0 °F 24.8 °F 93% 30.33 in 3.7 mi ESE 5.8 mph - N/A   Partly Cloudy
8:00 PM 30 °F - 27 °F 85% 30.35 in 7 mi East 4.5 mph - -   Partly Cloudy
8:20 PM 24.8 °F 19.1 °F 24.8 °F 100% 30.33 in 4.3 mi SE 4.6 mph - N/A   Unknown
8:50 PM 26.6 °F 22.6 °F 24.8 °F 93% 30.33 in 3.7 mi SE 3.5 mph - N/A   Unknown
9:00 PM 29 °F - 26 °F 86% 30.36 in 11 mi SE 4.5 mph - -   Clear
9:20 PM 26.6 °F - 24.8 °F 93% 30.33 in 0.3 mi Variable 2.3 mph - N/A Fog Mist
9:50 PM 23.0 °F 18.4 °F 23.0 °F 100% 30.36 in 0.2 mi SE 3.5 mph - N/A Fog Partly Cloudy
10:00 PM 29 °F - 26 °F 85% 30.37 in 11 mi SE 2.2 mph - -   Clear
10:20 PM 24.8 °F 20.5 °F 24.8 °F 100% 30.36 in 3.7 mi ESE 3.5 mph - N/A   Partly Cloudy
10:50 PM 23.0 °F 18.4 °F 21.2 °F 93% 30.36 in 3.1 mi East 3.5 mph - N/A Fog Partly Cloudy
11:00 PM 28 °F - 26 °F 89% 30.38 in 12 mi SE 4.5 mph - -   Partly Cloudy
11:20 PM 23.0 °F 18.4 °F 21.2 °F 93% 30.36 in 1.1 mi East 3.5 mph - N/A Fog Mostly Cloudy
11:50 PM 23.0 °F 18.4 °F 21.2 °F 93% 30.36 in 1.4 mi East 3.5 mph - N/A   Mostly Cloudy